^^
Saratoga-Weather Station Historical Data
Daily Summary for July 10, 2020 Units:  Metric    English   Both
Daily Weekly Monthly Yearly Custom
  High: Low: Average:
Temperature: 18.9 °C 12.9 °C 15.6 °C
Dew Point: 13.6 °C 11.2 °C 12.3 °C
Humidity: 96% 62% 82%
Wind Speed: 11.1km/h 0km/h 2.2km/h
Wind Gust: 14.5km/h - -
Wind- - SW
Pressure: 1015.6 hPa 1010.8 hPa -
Precipitation: 7.9 mm    
Historical Graphs
 
 
Tabular Data for July 10, 2020
Time Temperature Dew Point Pressure Wind Wind Speed Wind Gust Humidity Rainfall Rate (Hourly) solar
00:00 14.6 °C 11.4 °C 1015.2 hPa Calm   1.6 km/h 81% 0.0 mm 0 W/m2
00:05 14.5 °C 11.3 °C 1015.6 hPa East 1.4 km/h 1.6 km/h 81% 0.0 mm 0 W/m2
00:10 14.4 °C 11.4 °C 1015.2 hPa Calm   3.2 km/h 82% 0.0 mm 0 W/m2
00:15 14.4 °C 11.4 °C 1015.6 hPa NW 4.7 km/h 4.8 km/h 82% 0.0 mm 0 W/m2
00:20 14.4 °C 11.4 °C 1015.2 hPa West 3.2 km/h 4.8 km/h 82% 0.0 mm 0 W/m2
00:30 14.3 °C 11.3 °C 1015.2 hPa WNW 3.2 km/h 4.8 km/h 82% 0.0 mm 0 W/m2
00:35 14.3 °C 11.5 °C 1015.2 hPa WNW 1.4 km/h 4.8 km/h 83% 0.0 mm 0 W/m2
00:40 14.3 °C 11.5 °C 1015.2 hPa North 6.4 km/h 6.4 km/h 83% 0.0 mm 0 W/m2
00:45 14.3 °C 11.5 °C 1015.2 hPa NW 1.4 km/h 9.7 km/h 83% 0.0 mm 0 W/m2
00:50 14.3 °C 11.5 °C 1015.2 hPa WNW 4.7 km/h 4.8 km/h 83% 0.0 mm 0 W/m2
01:15 14.2 °C 11.5 °C 1015.2 hPa NNE 7.9 km/h 8 km/h 84% 0.0 mm 0 W/m2
01:20 14.2 °C 11.5 °C 1015.2 hPa Calm   6.4 km/h 84% 0.0 mm 0 W/m2
01:25 14.2 °C 11.5 °C 1015.2 hPa WNW 3.2 km/h 3.2 km/h 84% 0.0 mm 0 W/m2
01:30 14.2 °C 11.7 °C 1014.9 hPa West 3.2 km/h 6.4 km/h 85% 0.0 mm 0 W/m2
01:35 14.2 °C 11.7 °C 1014.9 hPa NNW 3.2 km/h 4.8 km/h 85% 0.0 mm 0 W/m2
01:40 14.2 °C 11.7 °C 1014.9 hPa East 3.2 km/h 3.2 km/h 85% 0.0 mm 0 W/m2
01:45 14.1 °C 11.6 °C 1014.9 hPa WNW 4.7 km/h 6.4 km/h 85% 0.0 mm 0 W/m2
01:50 14.1 °C 11.8 °C 1014.9 hPa North 1.4 km/h 4.8 km/h 86% 0.0 mm 0 W/m2
01:55 14.1 °C 11.8 °C 1014.9 hPa Calm   6.4 km/h 86% 0.0 mm 0 W/m2
02:00 14.1 °C 11.8 °C 1014.9 hPa Calm   3.2 km/h 86% 0.0 mm 0 W/m2
02:05 14 °C 11.7 °C 1014.9 hPa Calm   6.4 km/h 86% 0.0 mm 0 W/m2
02:10 14 °C 11.7 °C 1014.9 hPa Calm   1.6 km/h 86% 0.0 mm 0 W/m2
02:15 14 °C 11.7 °C 1014.9 hPa NE 3.2 km/h 8 km/h 86% 0.0 mm 0 W/m2
02:20 13.9 °C 11.6 °C 1014.6 hPa ENE 1.4 km/h 3.2 km/h 86% 0.0 mm 0 W/m2
02:25 13.9 °C 11.8 °C 1014.6 hPa NE 1.4 km/h 8 km/h 87% 0.0 mm 0 W/m2
02:30 13.9 °C 11.8 °C 1014.6 hPa East 1.4 km/h 4.8 km/h 87% 0.0 mm 0 W/m2
02:35 13.9 °C 11.8 °C 1014.6 hPa East 3.2 km/h 9.7 km/h 87% 0.0 mm 0 W/m2
02:40 13.9 °C 11.8 °C 1014.6 hPa ENE 1.4 km/h 3.2 km/h 87% 0.0 mm 0 W/m2
02:45 13.8 °C 11.7 °C 1014.6 hPa Calm   1.6 km/h 87% 0.0 mm 0 W/m2
02:50 13.8 °C 11.7 °C 1014.6 hPa SSE 1.4 km/h 3.2 km/h 87% 0.0 mm 0 W/m2
02:56 13.8 °C 11.7 °C 1014.6 hPa Calm   1.6 km/h 87% 0.0 mm 0 W/m2
03:01 13.8 °C 11.7 °C 1014.6 hPa Calm   3.2 km/h 87% 0.0 mm 0 W/m2
03:06 13.7 °C 11.6 °C 1014.6 hPa WNW 1.4 km/h 4.8 km/h 87% 0.0 mm 0 W/m2
03:11 13.7 °C 11.7 °C 1014.6 hPa Calm   3.2 km/h 88% 0.0 mm 0 W/m2
03:16 13.7 °C 11.7 °C 1014.6 hPa Calm   1.6 km/h 88% 0.0 mm 0 W/m2
03:21 13.6 °C 11.6 °C 1014.6 hPa Calm   3.2 km/h 88% 0.0 mm 0 W/m2
03:26 13.6 °C 11.6 °C 1014.6 hPa NE 1.4 km/h 3.2 km/h 88% 0.0 mm 0 W/m2
03:31 13.6 °C 11.6 °C 1014.6 hPa Calm   3.2 km/h 88% 0.0 mm 0 W/m2
03:36 13.6 °C 11.6 °C 1014.6 hPa Calm   3.2 km/h 88% 0.0 mm 0 W/m2
03:41 13.6 °C 11.8 °C 1014.6 hPa SE 1.4 km/h 3.2 km/h 89% 0.0 mm 0 W/m2
03:46 13.6 °C 11.8 °C 1014.6 hPa SE 3.2 km/h 3.2 km/h 89% 0.0 mm 0 W/m2
03:51 13.6 °C 11.8 °C 1014.2 hPa WNW 1.4 km/h 4.8 km/h 89% 0.0 mm 0 W/m2
03:56 13.6 °C 11.8 °C 1014.2 hPa Calm   9.7 km/h 89% 0.0 mm 0 W/m2
04:01 13.6 °C 11.8 °C 1014.2 hPa West 1.4 km/h 3.2 km/h 89% 0.0 mm 0 W/m2
04:06 13.6 °C 11.6 °C 1014.2 hPa West 1.4 km/h 8 km/h 88% 0.0 mm 0 W/m2
04:11 13.6 °C 11.6 °C 1014.2 hPa WNW 1.4 km/h 6.4 km/h 88% 0.0 mm 0 W/m2
04:16 13.6 °C 11.6 °C 1014.2 hPa Calm   1.6 km/h 88% 0.0 mm 0 W/m2
04:21 13.6 °C 11.6 °C 1013.9 hPa Calm   6.4 km/h 88% 0.0 mm 0 W/m2
04:26 13.6 °C 11.6 °C 1014.2 hPa ENE 1.4 km/h 1.6 km/h 88% 0.0 mm 0 W/m2
04:31 13.6 °C 11.6 °C 1013.9 hPa Calm   1.6 km/h 88% 0.0 mm 0 W/m2
04:36 13.5 °C 11.6 °C 1013.9 hPa NE 1.4 km/h 1.6 km/h 88% 0.0 mm 0 W/m2
04:41 13.5 °C 11.6 °C 1013.9 hPa Calm     88% 0.0 mm 0 W/m2
04:46 13.4 °C 11.5 °C 1013.9 hPa Calm     88% 0.0 mm 0 W/m2
04:51 13.4 °C 11.6 °C 1013.9 hPa Calm   1.6 km/h 89% 0.0 mm 0 W/m2
04:56 13.4 °C 11.6 °C 1013.9 hPa NE 3.2 km/h 6.4 km/h 89% 0.0 mm 0 W/m2
05:01 13.4 °C 11.6 °C 1013.9 hPa NNE 1.4 km/h 3.2 km/h 89% 0.0 mm 0 W/m2
05:06 13.4 °C 11.6 °C 1013.9 hPa Calm   4.8 km/h 89% 0.0 mm 0 W/m2
05:12 13.4 °C 11.6 °C 1013.9 hPa North 1.4 km/h 1.6 km/h 89% 0.0 mm 0 W/m2
05:17 13.4 °C 11.6 °C 1013.9 hPa Calm     89% 0.0 mm 0 W/m2
05:22 13.4 °C 11.6 °C 1013.9 hPa Calm     89% 0.0 mm 0 W/m2
05:27 13.3 °C 11.5 °C 1013.9 hPa Calm     89% 0.0 mm 0 W/m2
05:32 13.3 °C 11.5 °C 1013.9 hPa Calm     89% 0.0 mm 0 W/m2
05:37 13.3 °C 11.5 °C 1013.9 hPa Calm     89% 0.0 mm 5 W/m2
05:42 13.2 °C 11.4 °C 1013.9 hPa East 1.4 km/h 3.2 km/h 89% 0.0 mm 7 W/m2
05:47 13.2 °C 11.4 °C 1013.9 hPa Calm     89% 0.0 mm 9 W/m2
05:52 13.1 °C 11.3 °C 1013.9 hPa SW 3.2 km/h 3.2 km/h 89% 0.0 mm 12 W/m2
05:57 13 °C 11.2 °C 1013.9 hPa SW 1.4 km/h 1.6 km/h 89% 0.0 mm 18 W/m2
06:02 12.9 °C 11.3 °C 1013.9 hPa Calm   4.8 km/h 90% 0.0 mm 25 W/m2
06:07 12.9 °C 11.3 °C 1013.9 hPa SSW 1.4 km/h 3.2 km/h 90% 0.0 mm 30 W/m2
06:12 12.9 °C 11.3 °C 1013.9 hPa Calm   4.8 km/h 90% 0.0 mm 37 W/m2
06:17 12.9 °C 11.3 °C 1013.9 hPa Calm   1.6 km/h 90% 0.0 mm 39 W/m2
06:22 12.9 °C 11.3 °C 1013.9 hPa Calm     90% 0.0 mm 42 W/m2
06:27 12.9 °C 11.3 °C 1013.9 hPa Calm     90% 0.0 mm 42 W/m2
06:32 13 °C 11.4 °C 1013.9 hPa WNW 1.4 km/h 3.2 km/h 90% 0.0 mm 46 W/m2
06:37 13.1 °C 11.5 °C 1013.9 hPa Calm   3.2 km/h 90% 0.0 mm 49 W/m2
06:42 13.1 °C 11.5 °C 1013.9 hPa WNW 1.4 km/h 3.2 km/h 90% 0.0 mm 56 W/m2
06:47 13.2 °C 11.6 °C 1013.9 hPa WNW 1.4 km/h 3.2 km/h 90% 0.0 mm 67 W/m2
06:52 13.3 °C 11.7 °C 1013.9 hPa Calm     90% 0.0 mm 70 W/m2
06:57 13.3 °C 11.7 °C 1013.9 hPa Calm   3.2 km/h 90% 0.0 mm 81 W/m2
07:02 13.4 °C 11.8 °C 1013.9 hPa Calm   1.6 km/h 90% 0.0 mm 100 W/m2
07:07 13.6 °C 12 °C 1013.9 hPa East 1.4 km/h 3.2 km/h 90% 0.0 mm 104 W/m2
07:12 13.7 °C 11.9 °C 1013.9 hPa ENE 3.2 km/h 3.2 km/h 89% 0.0 mm 107 W/m2
07:17 13.8 °C 12 °C 1013.9 hPa ENE 3.2 km/h 6.4 km/h 89% 0.0 mm 100 W/m2
07:22 13.8 °C 11.8 °C 1013.9 hPa Calm   3.2 km/h 88% 0.0 mm 86 W/m2
07:27 13.8 °C 11.8 °C 1013.9 hPa ENE 1.4 km/h 6.4 km/h 88% 0.0 mm 72 W/m2
07:32 13.9 °C 11.9 °C 1013.9 hPa North 3.2 km/h 3.2 km/h 88% 0.0 mm 69 W/m2
07:38 13.9 °C 11.9 °C 1013.9 hPa East 1.4 km/h 1.6 km/h 88% 0.0 mm 67 W/m2
07:43 13.9 °C 11.9 °C 1013.9 hPa East 1.4 km/h 1.6 km/h 88% 0.0 mm 74 W/m2
07:48 13.9 °C 11.9 °C 1013.9 hPa ENE 3.2 km/h 3.2 km/h 88% 0.0 mm 81 W/m2
07:53 13.8 °C 11.8 °C 1013.9 hPa East 6.4 km/h 6.4 km/h 88% 0.0 mm 90 W/m2
07:58 13.8 °C 11.8 °C 1013.9 hPa Calm   3.2 km/h 88% 0.0 mm 100 W/m2
08:03 13.8 °C 11.8 °C 1013.9 hPa East 1.4 km/h 3.2 km/h 88% 0.0 mm 118 W/m2
08:08 13.9 °C 11.9 °C 1013.9 hPa ENE 1.4 km/h 1.6 km/h 88% 0.0 mm 123 W/m2
08:13 13.9 °C 11.9 °C 1013.9 hPa West 3.2 km/h 8 km/h 88% 0.0 mm 142 W/m2
08:18 14 °C 12 °C 1013.9 hPa NW 1.4 km/h 9.7 km/h 88% 0.0 mm 200 W/m2
08:23 14.2 °C 12.2 °C 1013.9 hPa North 1.4 km/h 4.8 km/h 88% 0.0 mm 163 W/m2
08:28 14.3 °C 12.3 °C 1013.9 hPa North 3.2 km/h 9.7 km/h 88% 0.0 mm 158 W/m2
08:33 14.4 °C 12.3 °C 1013.9 hPa WNW 1.4 km/h 3.2 km/h 87% 0.0 mm 274 W/m2
08:38 14.6 °C 12.5 °C 1013.9 hPa East 1.4 km/h 6.4 km/h 87% 0.0 mm 260 W/m2
08:43 14.8 °C 12.5 °C 1013.9 hPa WNW 1.4 km/h 4.8 km/h 86% 0.0 mm 192 W/m2
08:48 14.9 °C 12.6 °C 1013.9 hPa WNW 1.4 km/h 4.8 km/h 86% 0.0 mm 199 W/m2
08:53 15 °C 12.5 °C 1013.9 hPa West 3.2 km/h 3.2 km/h 85% 0.0 mm 195 W/m2
08:58 15.1 °C 12.6 °C 1013.9 hPa West 1.4 km/h 6.4 km/h 85% 0.0 mm 178 W/m2
09:03 15.1 °C 12.4 °C 1013.9 hPa Calm   3.2 km/h 84% 0.0 mm 174 W/m2
09:08 15.2 °C 12.7 °C 1013.9 hPa ENE 4.7 km/h 6.4 km/h 85% 0.0 mm 153 W/m2
09:13 15.2 °C 12.5 °C 1013.9 hPa East 1.4 km/h 3.2 km/h 84% 0.0 mm 137 W/m2
09:18 15.3 °C 12.6 °C 1013.9 hPa Calm   1.6 km/h 84% 0.0 mm 137 W/m2
09:23 15.3 °C 12.6 °C 1013.9 hPa ENE 1.4 km/h 4.8 km/h 84% 0.0 mm 153 W/m2
09:28 15.3 °C 12.4 °C 1013.9 hPa NE 1.4 km/h 9.7 km/h 83% 0.0 mm 174 W/m2
09:33 15.3 °C 12.6 °C 1013.9 hPa NE 1.4 km/h 4.8 km/h 84% 0.0 mm 192 W/m2
09:38 15.3 °C 12.6 °C 1013.9 hPa North 3.2 km/h 6.4 km/h 84% 0.0 mm 213 W/m2
09:43 15.4 °C 12.7 °C 1013.9 hPa Calm   1.6 km/h 84% 0.0 mm 209 W/m2
09:48 15.6 °C 12.9 °C 1013.9 hPa WNW 3.2 km/h 11.3 km/h 84% 0.0 mm 216 W/m2
09:53 15.4 °C 12.7 °C 1013.9 hPa WNW 4.7 km/h 9.7 km/h 84% 0.0 mm 218 W/m2
09:58 15.4 °C 12.7 °C 1013.9 hPa NNW 3.2 km/h 4.8 km/h 84% 0.0 mm 257 W/m2
10:03 15.6 °C 12.9 °C 1013.9 hPa North 1.4 km/h 4.8 km/h 84% 0.0 mm 323 W/m2
10:08 15.7 °C 12.8 °C 1013.9 hPa NNE 1.4 km/h 3.2 km/h 83% 0.0 mm 315 W/m2
10:13 15.8 °C 12.9 °C 1013.9 hPa WNW 4.7 km/h 6.4 km/h 83% 0.0 mm 334 W/m2
10:18 15.9 °C 13 °C 1013.9 hPa North 4.7 km/h 4.8 km/h 83% 0.0 mm 353 W/m2
10:23 16.2 °C 13.1 °C 1013.9 hPa NW 1.4 km/h 4.8 km/h 82% 0.0 mm 348 W/m2
10:28 16.2 °C 12.9 °C 1013.9 hPa North 1.4 km/h 6.4 km/h 81% 0.0 mm 341 W/m2
10:33 16.4 °C 13.1 °C 1013.9 hPa Calm     81% 0.0 mm 311 W/m2
10:38 16.6 °C 13.1 °C 1013.5 hPa NE 1.4 km/h 3.2 km/h 80% 0.0 mm 304 W/m2
10:43 16.8 °C 13.1 °C 1013.5 hPa NNW 1.4 km/h 4.8 km/h 79% 0.0 mm 320 W/m2
10:48 16.8 °C 12.9 °C 1013.5 hPa NE 1.4 km/h 1.6 km/h 78% 0.0 mm 325 W/m2
10:53 16.9 °C 13.2 °C 1013.5 hPa Calm   1.6 km/h 79% 0.0 mm 332 W/m2
10:58 17.2 °C 13.3 °C 1013.5 hPa North 1.4 km/h 4.8 km/h 78% 0.0 mm 348 W/m2
11:03 17.3 °C 13.2 °C 1013.5 hPa South 1.4 km/h 3.2 km/h 77% 0.0 mm 371 W/m2
11:09 17.2 °C 12.7 °C 1013.5 hPa NNW 3.2 km/h 4.8 km/h 75% 0.0 mm 450 W/m2
11:14 17.3 °C 12.6 °C 1013.5 hPa NNW 3.2 km/h 4.8 km/h 74% 0.0 mm 390 W/m2
11:19 17.4 °C 12.7 °C 1013.5 hPa West 1.4 km/h 9.7 km/h 74% 0.0 mm 631 W/m2
11:24 17.6 °C 12.7 °C 1013.5 hPa West 9.7 km/h 9.7 km/h 73% 0.0 mm 796 W/m2
11:29 17.7 °C 11.7 °C 1013.2 hPa WSW 7.9 km/h 9.7 km/h 68% 0.0 mm 381 W/m2
11:34 17.6 °C 11.6 °C 1013.2 hPa NW 3.2 km/h 3.2 km/h 68% 0.0 mm 406 W/m2
11:39 17.9 °C 11.7 °C 1013.2 hPa South 1.4 km/h 3.2 km/h 67% 0.0 mm 977 W/m2
11:44 18.4 °C 11.7 °C 1013.2 hPa NNW 4.7 km/h 4.8 km/h 65% 0.0 mm 461 W/m2
11:49 18.5 °C 12 °C 1013.2 hPa Calm   3.2 km/h 66% 0.0 mm 220 W/m2
11:54 18.3 °C 11.8 °C 1013.2 hPa NW 1.4 km/h 6.4 km/h 66% 0.0 mm 162 W/m2
11:59 18 °C 12 °C 1013.2 hPa NNW 1.4 km/h 4.8 km/h 68% 0.0 mm 128 W/m2
12:04 17.9 °C 11.9 °C 1013.2 hPa ENE 3.2 km/h 6.4 km/h 68% 0.0 mm 153 W/m2
12:09 17.7 °C 11.9 °C 1013.2 hPa NNW 4.7 km/h 4.8 km/h 69% 0.0 mm 160 W/m2
12:14 17.6 °C 11.6 °C 1013.2 hPa ENE 6.4 km/h 8 km/h 68% 0.0 mm 155 W/m2
12:19 17.6 °C 12.1 °C 1012.9 hPa North 1.4 km/h 3.2 km/h 70% 0.0 mm 193 W/m2
12:24 17.6 °C 11.8 °C 1012.9 hPa NE 1.4 km/h 6.4 km/h 69% 0.0 mm 211 W/m2
12:29 17.7 °C 12.4 °C 1012.9 hPa NNE 1.4 km/h 1.6 km/h 71% 0.0 mm 209 W/m2
12:34 17.7 °C 12.2 °C 1012.9 hPa NE 3.2 km/h 3.2 km/h 70% 0.0 mm 213 W/m2
12:39 17.8 °C 12 °C 1012.9 hPa NW 1.4 km/h 4.8 km/h 69% 0.0 mm 227 W/m2
12:44 17.8 °C 12 °C 1012.9 hPa West 3.2 km/h 4.8 km/h 69% 0.0 mm 214 W/m2
12:49 17.8 °C 12 °C 1012.9 hPa North 1.4 km/h 4.8 km/h 69% 0.0 mm 221 W/m2
12:54 17.7 °C 12.2 °C 1012.9 hPa Calm   1.6 km/h 70% 0.0 mm 237 W/m2
12:59 17.8 °C 12.3 °C 1012.9 hPa NW 1.4 km/h 4.8 km/h 70% 0.0 mm 274 W/m2
13:04 17.9 °C 12.1 °C 1012.9 hPa North 3.2 km/h 8 km/h 69% 0.0 mm 308 W/m2
13:09 17.9 °C 12.4 °C 1012.9 hPa NNE 1.4 km/h 3.2 km/h 70% 0.0 mm 313 W/m2
13:14 18.1 °C 12.3 °C 1012.9 hPa North 1.4 km/h 11.3 km/h 69% 0.0 mm 318 W/m2
13:19 18.2 °C 12.2 °C 1012.9 hPa Calm   3.2 km/h 68% 0.0 mm 323 W/m2
13:24 18.2 °C 12.2 °C 1012.5 hPa NNW 3.2 km/h 8 km/h 68% 0.0 mm 330 W/m2
13:29 18.3 °C 12.3 °C 1012.5 hPa WNW 4.7 km/h 6.4 km/h 68% 0.0 mm 341 W/m2
13:34 18.2 °C 12.2 °C 1012.5 hPa WNW 4.7 km/h 6.4 km/h 68% 0.0 mm 385 W/m2
13:39 18.2 °C 12.2 °C 1012.5 hPa West 4.7 km/h 9.7 km/h 68% 0.0 mm 362 W/m2
13:44 18.2 °C 12.2 °C 1012.5 hPa WSW 3.2 km/h 9.7 km/h 68% 0.0 mm 497 W/m2
13:49 18.3 °C 11.6 °C 1012.5 hPa WNW 11.1 km/h 12.9 km/h 65% 0.0 mm 626 W/m2
13:54 18.3 °C 11.6 °C 1012.5 hPa WNW 6.4 km/h 9.7 km/h 65% 0.0 mm 353 W/m2
13:59 18.3 °C 11.4 °C 1012.5 hPa NW 6.4 km/h 6.4 km/h 64% 0.0 mm 360 W/m2
14:04 18.5 °C 11.6 °C 1012.5 hPa NW 1.4 km/h 3.2 km/h 64% 0.0 mm 367 W/m2
14:09 18.7 °C 11.8 °C 1012.5 hPa NW 1.4 km/h 4.8 km/h 64% 0.0 mm 376 W/m2
14:14 18.8 °C 11.6 °C 1012.5 hPa SE 3.2 km/h 4.8 km/h 63% 0.0 mm 345 W/m2
14:19 18.9 °C 11.5 °C 1012.5 hPa NNW 3.2 km/h 4.8 km/h 62% 0.0 mm 325 W/m2
14:24 18.9 °C 11.7 °C 1012.5 hPa North 1.4 km/h 3.2 km/h 63% 0.0 mm 285 W/m2
14:29 18.9 °C 11.7 °C 1012.2 hPa ENE 7.9 km/h 9.7 km/h 63% 0.0 mm 234 W/m2
14:34 18.8 °C 12.1 °C 1012.2 hPa West 6.4 km/h 9.7 km/h 65% 0.0 mm 155 W/m2
14:39 18.6 °C 11.9 °C 1012.2 hPa WNW 4.7 km/h 11.3 km/h 65% 0.0 mm 169 W/m2
14:44 18.4 °C 11.7 °C 1012.2 hPa West 4.7 km/h 9.7 km/h 65% 0.0 mm 165 W/m2
14:49 18.3 °C 11.8 °C 1012.2 hPa WNW 4.7 km/h 11.3 km/h 66% 0.0 mm 183 W/m2
14:54 18.3 °C 12.1 °C 1012.2 hPa North 1.4 km/h 4.8 km/h 67% 0.0 mm 200 W/m2
14:59 18.3 °C 12.1 °C 1012.2 hPa West 3.2 km/h 9.7 km/h 67% 0.0 mm 251 W/m2
15:05 18.4 °C 12.2 °C 1012.2 hPa NW 4.7 km/h 6.4 km/h 67% 0.0 mm 288 W/m2
15:10 18.4 °C 12.2 °C 1012.2 hPa WNW 4.7 km/h 8 km/h 67% 0.0 mm 230 W/m2
15:15 18.3 °C 12.1 °C 1012.2 hPa NW 3.2 km/h 9.7 km/h 67% 0.0 mm 165 W/m2
15:20 18.3 °C 12.1 °C 1012.2 hPa NNW 1.4 km/h 4.8 km/h 67% 0.0 mm 98 W/m2
15:25 18.3 °C 12.1 °C 1012.2 hPa WNW 3.2 km/h 8 km/h 67% 0.0 mm 90 W/m2
15:30 18.2 °C 12 °C 1011.9 hPa NW 4.7 km/h 6.4 km/h 67% 0.0 mm 98 W/m2
15:35 18.1 °C 12.1 °C 1011.9 hPa NNW 1.4 km/h 6.4 km/h 68% 0.0 mm 113 W/m2
15:40 18 °C 12 °C 1012.2 hPa WNW 6.4 km/h 6.4 km/h 68% 0.0 mm 127 W/m2
15:45 17.8 °C 12 °C 1012.2 hPa West 6.4 km/h 14.5 km/h 69% 0.0 mm 144 W/m2
15:50 17.6 °C 12.1 °C 1011.9 hPa NW 3.2 km/h 11.3 km/h 70% 0.0 mm 167 W/m2
15:55 17.4 °C 12.1 °C 1011.9 hPa WNW 6.4 km/h 14.5 km/h 71% 0.0 mm 169 W/m2
16:00 17.3 °C 12.4 °C 1011.9 hPa NW 7.9 km/h 8 km/h 73% 0.0 mm 151 W/m2
16:05 17 °C 12.3 °C 1011.9 hPa NNW 3.2 km/h 8 km/h 74% 0.0 mm 135 W/m2
16:10 16.8 °C 12.5 °C 1011.9 hPa NW 3.2 km/h 8 km/h 76% 0.0 mm 144 W/m2
16:15 16.7 °C 12.8 °C 1011.9 hPa West 4.7 km/h 8 km/h 78% 0.0 mm 148 W/m2
16:20 16.6 °C 12.7 °C 1011.9 hPa West 11.1 km/h 11.3 km/h 78% 0.0 mm 149 W/m2
16:25 16.6 °C 12.7 °C 1011.9 hPa West 9.7 km/h 11.3 km/h 78% 0.0 mm 171 W/m2
16:30 16.6 °C 12.9 °C 1011.9 hPa West 4.7 km/h 9.7 km/h 79% 0.0 mm 176 W/m2
16:35 16.7 °C 13 °C 1011.9 hPa West 6.4 km/h 9.7 km/h 79% 0.0 mm 183 W/m2
16:40 16.8 °C 12.7 °C 1011.9 hPa WNW 3.2 km/h 6.4 km/h 77% 0.0 mm 200 W/m2
16:45 16.9 °C 12.8 °C 1011.5 hPa WNW 3.2 km/h 9.7 km/h 77% 0.0 mm 241 W/m2
16:50 17.1 °C 12.8 °C 1011.5 hPa WNW 3.2 km/h 11.3 km/h 76% 0.0 mm 257 W/m2
16:55 17.3 °C 13 °C 1011.5 hPa WNW 4.7 km/h 4.8 km/h 76% 0.0 mm 278 W/m2
17:00 17.4 °C 12.5 °C 1011.5 hPa West 4.7 km/h 6.4 km/h 73% 0.0 mm 251 W/m2
17:05 17.5 °C 12.6 °C 1011.5 hPa West 4.7 km/h 6.4 km/h 73% 0.0 mm 267 W/m2
17:10 17.7 °C 12.6 °C 1011.5 hPa WNW 6.4 km/h 6.4 km/h 72% 0.0 mm 265 W/m2
17:15 17.8 °C 12.7 °C 1011.5 hPa WNW 1.4 km/h 3.2 km/h 72% 0.0 mm 179 W/m2
17:20 17.8 °C 12.9 °C 1011.5 hPa NNW 3.2 km/h 6.4 km/h 73% 0.0 mm 183 W/m2
17:25 17.8 °C 13.3 °C 1011.5 hPa North 3.2 km/h 8 km/h 75% 0.0 mm 195 W/m2
17:30 17.6 °C 13.3 °C 1011.5 hPa NNW 1.4 km/h 4.8 km/h 76% 0.0 mm 211 W/m2
17:35 17.5 °C 13.4 °C 1011.5 hPa NW 6.4 km/h 12.9 km/h 77% 0.0 mm 162 W/m2
17:40 17.3 °C 13 °C 1011.5 hPa WNW 6.4 km/h 6.4 km/h 76% 0.0 mm 181 W/m2
17:45 17.2 °C 12.9 °C 1011.5 hPa NNE 7.9 km/h 11.3 km/h 76% 0.0 mm 195 W/m2
17:50 17.2 °C 12.9 °C 1011.2 hPa West 11.1 km/h 14.5 km/h 76% 0.0 mm 186 W/m2
17:55 17.2 °C 12.9 °C 1011.5 hPa NW 7.9 km/h 12.9 km/h 76% 0.0 mm 167 W/m2
18:00 17.2 °C 12.9 °C 1011.2 hPa NNW 1.4 km/h 6.4 km/h 76% 0.0 mm 158 W/m2
18:05 17.2 °C 13.1 °C 1011.2 hPa WNW 6.4 km/h 8 km/h 77% 0.0 mm 132 W/m2
18:10 17.1 °C 12.8 °C 1011.2 hPa WNW 3.2 km/h 8 km/h 76% 0.0 mm 125 W/m2
18:15 17.1 °C 12.6 °C 1011.2 hPa WNW 1.4 km/h 12.9 km/h 75% 0.0 mm 134 W/m2
18:20 17.1 °C 12.6 °C 1011.2 hPa WNW 3.2 km/h 6.4 km/h 75% 0.0 mm 135 W/m2
18:25 17.2 °C 12.7 °C 1011.2 hPa NW 3.2 km/h 6.4 km/h 75% 0.0 mm 132 W/m2
18:30 17.3 °C 12.8 °C 1011.2 hPa WNW 3.2 km/h 4.8 km/h 75% 0.0 mm 127 W/m2
18:35 17.5 °C 12.8 °C 1011.2 hPa NW 3.2 km/h 8 km/h 74% 0.0 mm 125 W/m2
18:40 17.6 °C 12.9 °C 1011.2 hPa NW 1.4 km/h 4.8 km/h 74% 0.0 mm 123 W/m2
18:45 17.6 °C 12.9 °C 1011.2 hPa West 1.4 km/h 8 km/h 74% 0.0 mm 118 W/m2
18:50 17.7 °C 12.8 °C 1011.2 hPa Calm   3.2 km/h 73% 0.0 mm 107 W/m2
18:55 17.7 °C 12.6 °C 1011.2 hPa WNW 4.7 km/h 8 km/h 72% 0.0 mm 104 W/m2
19:00 17.7 °C 12.6 °C 1010.8 hPa Calm   3.2 km/h 72% 0.0 mm 97 W/m2
19:06 17.7 °C 12.4 °C 1010.8 hPa NW 3.2 km/h 4.8 km/h 71% 0.0 mm 90 W/m2
19:11 17.7 °C 12.6 °C 1010.8 hPa Calm   4.8 km/h 72% 0.0 mm 83 W/m2
19:16 17.7 °C 12.8 °C 1010.8 hPa Calm   1.6 km/h 73% 0.0 mm 76 W/m2
19:21 17.7 °C 12.6 °C 1011.2 hPa NNW 3.2 km/h 4.8 km/h 72% 0.0 mm 67 W/m2
19:26 17.7 °C 13 °C 1011.2 hPa WNW 3.2 km/h 3.2 km/h 74% 0.0 mm 62 W/m2
19:31 17.6 °C 12.9 °C 1011.2 hPa West 6.4 km/h 6.4 km/h 74% 0.0 mm 51 W/m2
19:36 17.6 °C 12.9 °C 1011.2 hPa West 4.7 km/h 4.8 km/h 74% 0.0 mm 49 W/m2
19:41 17.4 °C 12.7 °C 1011.2 hPa WSW 1.4 km/h 4.8 km/h 74% 0.0 mm 49 W/m2
19:46 17.4 °C 12.7 °C 1011.2 hPa WNW 3.2 km/h 4.8 km/h 74% 0.0 mm 39 W/m2
19:51 17.4 °C 12.9 °C 1011.2 hPa Calm   4.8 km/h 75% 0.0 mm 32 W/m2
19:56 17.4 °C 12.9 °C 1011.2 hPa NE 1.4 km/h 3.2 km/h 75% 0.0 mm 26 W/m2
20:01 17.4 °C 12.9 °C 1011.2 hPa NE 3.2 km/h 4.8 km/h 75% 0.0 mm 16 W/m2
20:06 17.2 °C 13.3 °C 1011.2 hPa ENE 6.4 km/h 8 km/h 78% 0.0 mm 11 W/m2
20:11 16.9 °C 13.6 °C 1011.5 hPa ESE 1.4 km/h 8 km/h 81% 0.2 mm 11 W/m2
20:16 16.4 °C 13.5 °C 1011.5 hPa SE 1.4 km/h 3.2 km/h 83% 1.5 mm 18 W/m2
20:21 16 °C 13.5 °C 1011.5 hPa SE 1.4 km/h 1.6 km/h 85% 2.5 mm 21 W/m2
20:26 15.7 °C 13.5 °C 1011.5 hPa Calm   1.6 km/h 87% 3.3 mm 21 W/m2
20:31 15.4 °C 13.6 °C 1011.2 hPa Calm   1.6 km/h 89% 3.6 mm 19 W/m2
20:36 15.2 °C 13.6 °C 1011.5 hPa Calm   1.6 km/h 90% 3.8 mm 18 W/m2
20:41 15 °C 13.4 °C 1011.2 hPa East 1.4 km/h 3.2 km/h 90% 3.8 mm 16 W/m2
20:46 14.9 °C 13.4 °C 1011.2 hPa Calm   1.6 km/h 91% 4.3 mm 14 W/m2
20:51 14.8 °C 13.3 °C 1011.2 hPa SW 1.4 km/h 3.2 km/h 91% 4.3 mm 12 W/m2
20:56 14.7 °C 13.4 °C 1011.2 hPa Calm   1.6 km/h 92% 4.3 mm 11 W/m2
21:01 14.6 °C 13.5 °C 1011.5 hPa SW 1.4 km/h 1.6 km/h 93% 4.6 mm 9 W/m2
21:06 14.5 °C 13.2 °C 1011.5 hPa Calm     92% 4.6 mm 7 W/m2
21:11 14.4 °C 13.3 °C 1011.5 hPa Calm     93% 4.6 mm 7 W/m2
21:16 14.3 °C 13.2 °C 1011.5 hPa Calm   1.6 km/h 93% 4.1 mm 5 W/m2
21:21 14.2 °C 13.1 °C 1011.5 hPa Calm   1.6 km/h 93% 3.8 mm 5 W/m2
21:26 14.2 °C 13.1 °C 1011.5 hPa Calm   1.6 km/h 93% 3.3 mm 0 W/m2
21:31 14.1 °C 13.1 °C 1011.5 hPa SW 1.4 km/h 3.2 km/h 94% 3.3 mm 0 W/m2
21:36 14 °C 13 °C 1011.5 hPa Calm   1.6 km/h 94% 3.3 mm 0 W/m2
21:41 13.9 °C 12.9 °C 1011.5 hPa Calm   3.2 km/h 94% 3.3 mm 0 W/m2
21:46 13.9 °C 12.9 °C 1011.5 hPa Calm     94% 2.8 mm 0 W/m2
21:51 13.9 °C 12.9 °C 1011.5 hPa SW 1.4 km/h 3.2 km/h 94% 2.5 mm 0 W/m2
21:56 13.8 °C 12.9 °C 1011.5 hPa Calm   1.6 km/h 94% 2.8 mm 0 W/m2
22:02 13.8 °C 12.9 °C 1011.5 hPa SW 1.4 km/h 1.6 km/h 94% 2.8 mm 0 W/m2
22:07 13.7 °C 12.8 °C 1011.5 hPa Calm   1.6 km/h 94% 3.0 mm 0 W/m2
22:12 13.7 °C 12.9 °C 1011.5 hPa Calm   1.6 km/h 95% 2.8 mm 0 W/m2
22:17 13.7 °C 12.9 °C 1011.9 hPa Calm   1.6 km/h 95% 1.8 mm 0 W/m2
22:22 13.7 °C 12.9 °C 1011.5 hPa Calm     95% 1.5 mm 0 W/m2
22:27 13.7 °C 12.9 °C 1011.9 hPa Calm   1.6 km/h 95% 1.3 mm 0 W/m2
22:32 13.8 °C 13 °C 1011.9 hPa Calm     95% 1.0 mm 0 W/m2
22:37 13.8 °C 13 °C 1011.9 hPa Calm     95% 1.0 mm 0 W/m2
22:43 13.8 °C 13 °C 1011.9 hPa Calm     95% 1.0 mm 0 W/m2
22:48 13.8 °C 13 °C 1011.9 hPa SW 1.6 km/h 1.6 km/h 95% 1.0 mm 0 W/m2
22:53 13.8 °C 13 °C 1011.9 hPa SW 1.4 km/h 3.2 km/h 95% 1.0 mm 0 W/m2
22:58 13.8 °C 13 °C 1011.9 hPa SW 3.2 km/h 3.2 km/h 95% 0.8 mm 0 W/m2
23:03 13.8 °C 13 °C 1011.5 hPa WSW 1.4 km/h 4.8 km/h 95% 0.5 mm 0 W/m2
23:08 13.8 °C 13 °C 1011.5 hPa WSW 3.2 km/h 3.2 km/h 95% 0.5 mm 0 W/m2
23:13 13.8 °C 13.2 °C 1011.5 hPa Calm   4.8 km/h 96% 0.2 mm 0 W/m2
23:18 13.8 °C 13.2 °C 1011.5 hPa WSW 3.2 km/h 3.2 km/h 96% 0.0 mm 0 W/m2
23:23 13.8 °C 13.2 °C 1011.5 hPa West 1.4 km/h 6.4 km/h 96% 0.0 mm 0 W/m2
23:28 13.8 °C 13.2 °C 1011.5 hPa West 3.2 km/h 4.8 km/h 96% 0.0 mm 0 W/m2
23:33 13.8 °C 13.2 °C 1011.5 hPa West 1.4 km/h 4.8 km/h 96% 0.0 mm 0 W/m2
23:38 13.8 °C 13 °C 1011.5 hPa West 1.4 km/h 3.2 km/h 95% 0.0 mm 0 W/m2
23:44 13.7 °C 13.1 °C 1011.5 hPa Calm   4.8 km/h 96% 0.0 mm 0 W/m2
23:49 13.7 °C 13.1 °C 1011.2 hPa West 1.4 km/h 1.6 km/h 96% 0.0 mm 0 W/m2
23:54 13.7 °C 13.1 °C 1011.2 hPa Calm     96% 0.0 mm 0 W/m2
23:59 13.7 °C 13.1 °C 1011.2 hPa Calm     96% 0.0 mm 0 W/m2
Juneau County Weather
Compliments of Weather Underground - 4 mb